Home   Weather   Gummersbach   Past weeks

Flag for Germany Past Weather in Gummersbach, North Rhine-Westphalia, Germany — Yesterday and Last 2 Weeks

Now
57 °F

Passing clouds.


Feels Like: 56 °F
Forecast: 47 / 54 °F
Wind: 6 mph from South

Location: Koeln / Bonn

Current Time: Oct 1, 2016 at 9:09:06 PM

Latest Report: Oct 1, 2016 at 8:20 PM


Visibility: N/A

Pressure: 29.80 "Hg

Humidity: 94%

Dew Point: 55 °F

Location of GummersbachLocation

Past Weather in Gummersbach — Graph

°F

Gummersbach Temperature Yesterday

Maximum temperature yesterday: 66 °F (at 1:20 PM)
Minimum temperature yesterday: 52 °F (at 9:50 PM)
Average temperature yesterday: 60 °F

High & Low Weather Summary for the Past Weeks

 TemperatureHumidityPressure
High81 °F (Sep 25, 3:50 PM)100% (Sep 17, 2:20 AM)30.33 "Hg (Sep 17, 2:20 AM)
Low43 °F (Sep 22, 2:50 AM)32% (Sep 25, 4:20 PM)29.77 "Hg (Oct 1, 1:50 PM)
Average60 °F74%30.11 "Hg
* Reported Sep 16 7:20 PM — Oct 1 7:50 PM, Gummersbach, Weather by CustomWeather, © 2016

Note: Actual official high and low records may vary slightly from our data, if they occured in-between our weather recording intervals... More about our weather records

Advertising

Gummersbach Weather History for the Previous 24 Hours

Scroll right to see more
 ConditionsComfort  
Time TempWeatherWind HumidityBarometerVisibility
7:50 PM
Sat, Oct 1
57 °FPassing clouds.3 mph94%29.77 "HgN/A
7:20 PM59 °FPassing clouds.7 mph88%29.77 "HgN/A
6:50 PM59 °FScattered clouds.5 mph88%29.77 "HgN/A
6:20 PM61 °FScattered clouds.5 mph83%29.77 "HgN/A
5:50 PM61 °FPassing clouds.6 mph83%29.77 "HgN/A
5:20 PM63 °FScattered clouds.3 mph77%29.77 "HgN/A
4:50 PM63 °FBroken clouds.2 mph77%29.77 "HgN/A
4:20 PM61 °FBroken clouds.2 mph83%29.77 "HgN/A
3:50 PM59 °FSprinkles. Broken clouds.5 mph82%29.77 "HgN/A
3:20 PM61 °FBroken clouds.2 mph77%29.77 "HgN/A
2:50 PM59 °FPartly sunny.2 mph82%29.77 "HgN/A
2:20 PM59 °FPartly sunny.3 mph88%29.77 "HgN/A
1:50 PM57 °FPartly sunny.3 mph88%29.77 "HgN/A
1:20 PM57 °FPartly sunny.2 mph88%29.80 "HgN/A
12:50 PM55 °FPartly sunny.3 mph88%29.80 "HgN/A
12:20 PM55 °FLight rain. Partly sunny.2 mph94%29.80 "HgN/A
11:50 AM55 °FLight rain. Partly sunny.3 mph94%29.80 "HgN/A
11:20 AM54 °FLight rain. Partly sunny.2 mph100%29.80 "HgN/A
10:50 AM54 °FLight rain. Partly sunny.1 mph94%29.80 "HgN/A
10:20 AM54 °FLight rain. Partly sunny.5 mph94%29.80 "HgN/A
9:50 AM54 °FMostly cloudy.3 mph94%29.80 "HgN/A
9:20 AM54 °FDrizzle. Partly sunny.3 mph94%29.80 "HgN/A
8:50 AM54 °FDrizzle. Broken clouds.2 mph94%29.83 "HgN/A
8:20 AM52 °FDrizzle. Partly sunny.1 mph100%29.83 "HgN/A
7:50 AM52 °FLight rain. Partly sunny.3 mph100%29.83 "HgN/A
7:20 AM54 °FLight rain. Partly cloudy.3 mph94%29.83 "HgN/A
6:50 AM54 °FLight rain. Partly cloudy.5 mph94%29.83 "HgN/A
6:20 AM54 °FLight rain. Mostly cloudy.2 mph100%29.83 "HgN/A
5:50 AM54 °FRain. Passing clouds.2 mph100%29.83 "HgN/A
5:20 AM55 °FRain. Passing clouds.3 mph94%29.83 "HgN/A
4:50 AM55 °FRain. Clear.6 mph94%29.83 "HgN/A
4:20 AM55 °FLight rain. Overcast.7 mph94%29.86 "HgN/A
3:50 AM55 °FLight rain. Clear.6 mph94%29.86 "HgN/A
3:20 AM55 °FLight rain. Overcast.3 mph94%29.89 "HgN/A
2:50 AM55 °FLight rain. Clear.6 mph94%29.89 "HgN/A
2:20 AM55 °FLight rain. Clear.6 mph88%29.89 "HgN/A
1:50 AM55 °FLight rain. Clear.5 mph88%29.92 "HgN/A
1:20 AM55 °FPassing clouds.5 mph88%29.92 "HgN/A
12:50 AM55 °FLight rain. Clear.3 mph88%29.92 "HgN/A
12:20 AM55 °FClear.5 mph88%29.95 "Hg10 mi
11:50 PM
Fri, Sep 30
55 °FLight rain. Clear.5 mph88%29.95 "HgN/A
11:20 PM55 °FClear.5 mph88%29.95 "Hg10 mi
10:50 PM55 °FClear.3 mph82%29.95 "Hg10 mi
10:20 PM52 °FClear.5 mph88%29.95 "Hg10 mi
9:50 PM52 °FClear.2 mph88%29.95 "Hg10 mi
9:20 PM55 °FPassing clouds.5 mph77%29.95 "HgN/A
Weather by CustomWeather, © 2016

See weather overviewHow to use our weather pages